[[{"header":{"parameterUnit":"m.s-1","parameterCategory":1,"la1":30.2991,"la2":30.254,"lo1":-89.0895,"lo2":-89.0444,"dy":0.0017,"dx":0.0017,"nx":28,"ny":28,"refTime":"2026-03-03T03:00:00:Z","depth":0,"parameterNumber":2,"parameterNumberName":"U-component_of_WINDS"},"data":[0,0,0,0,0,0,0,0,0,0,0,0,0,0,0,0,0,0,0,0,0,0,0,0,0,0,0,0,0,0,0,0,0,0,0,0,0,0,0,0,0,0,0,0,0,0,0,0,0,0,0,0,0,0,0,0,0,0,-3.3235,-3.3235,0,-3.3227,-3.3227,-3.3227,-3.3162,-3.3161,-3.3159,-3.3158,-3.3151,-3.3152,-3.3154,0,0,0,0,0,0,0,0,0,0,0,0,0,-3.3196,-3.3197,-3.3235,-3.3235,-3.3235,-3.3227,-3.3227,-3.3227,-3.3163,-3.3161,-3.3159,-3.3157,-3.3151,-3.3152,-3.3154,0,0,0,0,0,0,0,0,0,0,0,0,0,-3.3203,-3.3198,-3.3235,-3.3202,-3.3198,-3.3227,-3.3227,-3.3227,-3.3163,-3.3161,-3.3158,-3.3156,-3.315,-3.3152,-3.3154,-3.3214,0,0,-3.316,-3.3161,0,0,0,0,0,0,0,0,-3.3203,-3.3205,-3.3207,-3.3204,-3.32,-3.3193,-3.3211,-3.3223,-3.3164,-3.3177,-3.3158,-3.3155,-3.3167,-3.3167,-3.3171,-3.3214,-3.3214,-3.316,-3.3161,-3.3162,-3.3163,0,0,0,0,0,0,0,-3.3203,-3.3205,-3.3232,-3.3207,-3.3203,-3.3188,-3.3186,-3.3213,-3.3185,-3.3175,-3.317,-3.317,-3.3165,-3.317,-3.3171,-3.3214,-3.316,-3.3162,-3.3163,-3.3164,-3.3307,-3.331,0,0,0,0,0,0,-3.3206,-3.3205,-3.3232,-3.3232,-3.3196,-3.3191,-3.3189,-3.3198,-3.3185,-3.3181,-3.3173,-3.3167,-3.3167,-3.3168,-3.317,-3.324,-3.3162,-3.3164,-3.3165,-3.3305,-3.3308,-3.3311,0,0,0,0,0,0,-3.3206,-3.321,-3.3232,-3.3217,-3.3219,-3.3194,-3.3205,-3.3199,-3.3204,-3.3183,-3.3178,-3.3182,-3.3166,-3.3167,-3.3204,-3.3239,-3.3165,-3.3167,-3.3302,-3.3306,-3.331,-3.3381,0,0,0,0,0,0,-3.3205,-3.321,-3.3231,-3.3218,-3.322,-3.3265,-3.3207,-3.3201,-3.3207,-3.32,-3.319,-3.3187,-3.3164,-3.3202,-3.3206,-3.3241,-3.3168,-3.3298,-3.3304,-3.3308,-3.3375,-3.3387,-3.3397,0,0,0,0,0,-3.3204,-3.3252,-3.3233,-3.3236,-3.3246,-3.3267,-3.3269,-3.3241,-3.321,-3.3232,-3.322,-3.3187,-3.3235,-3.3206,-3.321,-3.3246,-3.3296,-3.3302,-3.3308,-3.337,-3.3385,-3.3397,0,0,0,0,0,0,-3.3269,-3.3249,-3.3228,-3.3272,-3.3272,-3.3256,-3.3283,-3.3257,-3.3265,-3.3259,-3.3225,-3.3223,-3.3265,-3.326,-3.3227,-3.3305,-3.326,-3.3267,-3.3306,-3.332,-3.333,-3.3329,-3.317,0,0,0,0,0,-3.3289,-3.3307,-3.3289,-3.333,-3.3331,-3.3308,-3.3316,-3.3295,-3.3294,-3.3293,-3.3283,-3.3283,-3.3299,-3.3309,-3.3322,-3.3376,-3.3373,-3.3403,-3.3413,-3.3422,-3.3428,-3.3457,-3.347,-3.333,-3.333,-3.333,0,0,-3.3329,-3.3321,-3.3334,-3.3343,-3.334,-3.3361,-3.3308,-3.3331,-3.3347,-3.3297,-3.333,-3.3324,-3.3322,-3.3368,-3.3387,-3.3364,-3.3467,-3.343,-3.3437,-3.3438,-3.3464,-3.3478,-3.3489,-3.3334,-3.3334,-3.3333,0,0,-3.3413,-3.3409,-3.3442,-3.3442,-3.3439,-3.3423,-3.3432,-3.3421,-3.3415,-3.3448,-3.3412,-3.3431,-3.3457,-3.3458,-3.3462,-3.3551,-3.3521,-3.3556,-3.3611,-3.364,-3.3651,-3.366,-3.3691,-3.3703,-3.3563,-3.3563,-3.3563,0,-3.3463,-3.3492,-3.3463,-3.349,-3.3496,-3.3453,-3.3488,-3.3489,-3.3491,-3.3496,-3.3471,-3.3505,-3.3501,-3.3546,-3.3568,-3.3573,-3.3582,-3.3555,-3.3651,-3.3661,-3.3669,-3.3698,-3.371,-3.3567,-3.3566,-3.3566,-3.3566,0,-3.3554,-3.3575,-3.3603,-3.3606,-3.3616,-3.3646,-3.3624,-3.3637,-3.3617,-3.3605,-3.3641,-3.3635,-3.3647,-3.3657,-3.3637,-3.37,-3.3686,-3.3657,-3.3611,-3.3687,-3.3714,-3.3725,-3.3573,-3.3571,-3.357,-3.3569,0,0,-3.3674,-3.3664,-3.3675,-3.3676,-3.3672,-3.3688,-3.3719,-3.373,-3.3742,-3.3746,-3.3771,-3.3797,-3.377,-3.3775,-3.3755,-3.3781,-3.3852,-3.3748,-3.3748,-3.3767,-3.3922,-3.3942,-3.3956,-3.3834,-3.3836,-3.3837,-3.3921,0,-3.3754,-3.3803,-3.378,-3.3833,-3.3852,-3.3815,-3.3841,-3.3842,-3.3833,-3.3849,-3.3839,-3.3858,-3.3822,-3.3824,-3.3848,-3.3838,-3.3882,-3.3832,-3.3856,-3.3857,-3.3855,-3.397,-3.3991,-3.407,-3.3932,-3.3934,-3.3935,0,-3.3852,-3.3861,-3.3915,-3.3909,-3.3917,-3.3941,-3.3951,-3.3967,-3.3969,-3.396,-3.3968,-3.3943,-3.3974,-3.3931,-3.3973,-3.3939,-3.3949,-3.3946,-3.3948,-3.3947,-3.3899,-3.3971,-3.4095,-3.4106,-3.3951,-3.395,-3.3949,0,-3.3933,-3.3959,-3.3995,-3.3998,-3.3992,-3.401,-3.4009,-3.4008,-3.4018,-3.4027,-3.4033,-3.4047,-3.4054,-3.4065,-3.4046,-3.4016,-3.4091,-3.4046,-3.4085,-3.4086,-3.41,-3.4099,-3.4226,-3.411,-3.4109,-3.4109,-3.4109,0,-3.4022,-3.4057,-3.4031,-3.4053,-3.4092,-3.4067,-3.4106,-3.4101,-3.4102,-3.4123,-3.4092,-3.4113,-3.4087,-3.4106,-3.4092,-3.4129,-3.4133,-3.4127,-3.4123,-3.4129,-3.4129,-3.4132,-3.4125,-3.4112,-3.4112,-3.4111,-3.4111,0,-3.4117,-3.4102,-3.4139,-3.4132,-3.4131,-3.416,-3.4154,-3.4175,-3.4165,-3.4193,-3.4198,-3.4183,-3.4203,-3.4187,-3.4207,-3.4197,-3.4247,-3.4235,-3.4246,-3.4242,-3.4281,-3.4277,-3.4412,-3.4429,-3.4304,-3.4306,-3.4307,0,-3.4174,-3.42,-3.4197,-3.4209,-3.421,-3.423,-3.424,-3.4218,-3.423,-3.4236,-3.4256,-3.4275,-3.4288,-3.4324,-3.4315,-3.4331,-3.4318,-3.4365,-3.432,-3.4326,-3.4318,-3.4316,-3.4318,-3.4373,-3.4375,-3.4376,-3.4377,0,-3.4277,-3.4269,-3.4284,-3.4298,-3.4311,-3.432,-3.4327,-3.4339,-3.4318,-3.4333,-3.4354,-3.4365,-3.4387,-3.4406,-3.4419,-3.4419,-3.4395,-3.4392,-3.4401,-3.4406,-3.4411,-3.4408,-3.4268,-3.4388,-3.4387,-3.4386,-3.4385,-3.4385,-3.4353,-3.4375,-3.4377,-3.4396,-3.4399,-3.4408,-3.4427,-3.4421,-3.4438,-3.4454,-3.4441,-3.4467,-3.4471,-3.4487,-3.449,-3.4511,-3.4491,-3.4506,-3.4509,-3.4512,-3.4517,-3.441,-3.4514,-3.4513,-3.4513,-3.4513,-3.4512,0,-3.4453,-3.4453,-3.4471,-3.4483,-3.4498,-3.4476,-3.4484,-3.4498,-3.4521,-3.4527,-3.4542,-3.4567,-3.4587,-3.4581,-3.4598,-3.4616,-3.4606,-3.4621,-3.4619,-3.4619,-3.4534,-3.4523,-3.463,-3.463,-3.463,-3.463,-3.463,-3.463,-3.4507,-3.4542,-3.4535,-3.4574,-3.4574,-3.4599,-3.4605,-3.4614,-3.4618,-3.4648,-3.4664,-3.4661,-3.4663,-3.4681,-3.4698,-3.4696,-3.4703,-3.4723,-3.4717,-3.4637,-3.4625,-3.4614,-3.4603,-3.4725,-3.4725,-3.48,-3.4801,-3.4801]},{"header":{"parameterUnit":"m.s-1","parameterCategory":1,"la1":30.2991,"la2":30.254,"lo1":-89.0895,"lo2":-89.0444,"dy":0.0017,"dx":0.0017,"nx":28,"ny":28,"refTime":"2026-03-03T03:00:00:Z","depth":0,"parameterNumber":3,"parameterNumberName":"V-component_of_WINDS"},"data":[0,0,0,0,0,0,0,0,0,0,0,0,0,0,0,0,0,0,0,0,0,0,0,0,0,0,0,0,0,0,0,0,0,0,0,0,0,0,0,0,0,0,0,0,0,0,0,0,0,0,0,0,0,0,0,0,0,0,0.6134,0.6134,0,0.6116,0.6116,0.6116,0.6099,0.6099,0.6099,0.6099,0.6078,0.6077,0.6077,0,0,0,0,0,0,0,0,0,0,0,0,0,0.6156,0.6155,0.6135,0.6134,0.6134,0.6116,0.6116,0.6116,0.6099,0.6099,0.6099,0.6098,0.6078,0.6077,0.6077,0,0,0,0,0,0,0,0,0,0,0,0,0,0.6143,0.6155,0.6135,0.6124,0.6123,0.6116,0.6116,0.6116,0.6099,0.6099,0.6099,0.6098,0.6078,0.6077,0.6077,0.6079,0,0,0.6075,0.6075,0,0,0,0,0,0,0,0,0.6143,0.6142,0.6126,0.6124,0.6123,0.611,0.6116,0.6103,0.6099,0.6108,0.6099,0.6098,0.6088,0.6087,0.6084,0.6078,0.6077,0.6075,0.6075,0.6074,0.6074,0,0,0,0,0,0,0,0.6144,0.6143,0.6127,0.6125,0.6124,0.612,0.6118,0.6113,0.61,0.6107,0.6106,0.6104,0.6088,0.6085,0.6083,0.6077,0.6075,0.6074,0.6074,0.6074,0.6075,0.6075,0,0,0,0,0,0,0.6147,0.6143,0.6128,0.6127,0.6133,0.612,0.6117,0.6114,0.61,0.6098,0.6104,0.6103,0.6086,0.6084,0.6083,0.6086,0.6074,0.6074,0.6073,0.6074,0.6075,0.6075,0,0,0,0,0,0,0.6148,0.6146,0.6128,0.6135,0.6132,0.612,0.6116,0.6114,0.6111,0.6098,0.6095,0.6104,0.6085,0.6083,0.6081,0.6085,0.6074,0.6073,0.6074,0.6075,0.6075,0.6092,0,0,0,0,0,0,0.6148,0.6146,0.6146,0.6135,0.6132,0.6127,0.6117,0.6114,0.611,0.6109,0.6097,0.6094,0.6085,0.6082,0.608,0.6084,0.6073,0.6074,0.6074,0.6075,0.6091,0.6093,0.6095,0,0,0,0,0,0.6149,0.6151,0.6147,0.6145,0.6132,0.6127,0.6126,0.6115,0.6111,0.6111,0.6104,0.6095,0.6085,0.6082,0.608,0.6083,0.6073,0.6074,0.6075,0.609,0.6093,0.6095,0,0,0,0,0,0,0.6161,0.6149,0.6144,0.6142,0.6136,0.6124,0.6125,0.6118,0.6112,0.6111,0.6099,0.6096,0.6095,0.6089,0.6086,0.6086,0.6078,0.6079,0.609,0.6093,0.6095,0.6096,0.6072,0,0,0,0,0,0.6164,0.6162,0.6151,0.615,0.6148,0.6137,0.6134,0.6127,0.612,0.6117,0.6109,0.6102,0.6098,0.6095,0.609,0.609,0.6088,0.6092,0.6094,0.6096,0.6096,0.6099,0.6101,0.6078,0.6078,0.6078,0,0,0.6169,0.6162,0.6161,0.6153,0.6147,0.6145,0.6135,0.6132,0.613,0.6116,0.6114,0.6108,0.61,0.61,0.6099,0.6094,0.6103,0.6097,0.6098,0.6098,0.61,0.6102,0.6104,0.6079,0.6078,0.6078,0,0,0.6178,0.6172,0.6172,0.6168,0.616,0.6154,0.6154,0.6144,0.614,0.6138,0.6128,0.6126,0.6118,0.6113,0.611,0.6121,0.6113,0.6119,0.6129,0.6131,0.6133,0.6135,0.614,0.6142,0.612,0.612,0.612,0,0.6185,0.6182,0.6173,0.6172,0.6169,0.6158,0.6159,0.6155,0.6146,0.6144,0.614,0.6132,0.6125,0.6125,0.6128,0.6125,0.6125,0.612,0.6134,0.6135,0.6137,0.6141,0.6143,0.6121,0.6121,0.6121,0.6121,0,0.6192,0.619,0.6191,0.6184,0.6182,0.6181,0.6173,0.6171,0.6166,0.616,0.6159,0.6152,0.6146,0.6146,0.6139,0.6145,0.6143,0.6136,0.6128,0.614,0.6144,0.6146,0.6122,0.6122,0.6122,0.6121,0,0,0.6205,0.6196,0.6197,0.6195,0.6188,0.6186,0.6186,0.6182,0.6182,0.6177,0.6177,0.6173,0.6168,0.6164,0.6157,0.6159,0.617,0.6152,0.6152,0.6157,0.6179,0.6184,0.6186,0.6166,0.6166,0.6166,0.618,0,0.6213,0.6213,0.6207,0.6209,0.6208,0.6199,0.62,0.6196,0.6191,0.619,0.6185,0.6182,0.6175,0.6173,0.6175,0.6169,0.6175,0.6168,0.6166,0.6166,0.6169,0.6188,0.6193,0.6206,0.6181,0.6182,0.6182,0,0.6221,0.6219,0.6221,0.6217,0.6216,0.6217,0.6214,0.6213,0.6209,0.6206,0.6203,0.6197,0.6197,0.619,0.6191,0.6187,0.6186,0.6184,0.6184,0.6183,0.6175,0.6189,0.621,0.6212,0.6184,0.6184,0.6184,0,0.6232,0.623,0.6232,0.623,0.6224,0.6226,0.6223,0.6219,0.6218,0.6216,0.6216,0.6213,0.6212,0.621,0.6203,0.6198,0.6206,0.6198,0.6204,0.6204,0.6205,0.6206,0.6227,0.6205,0.6205,0.6205,0.6205,0,0.6241,0.6244,0.6237,0.6238,0.6241,0.6234,0.6237,0.6234,0.6231,0.6232,0.6225,0.6225,0.6217,0.6217,0.6211,0.6215,0.6214,0.6211,0.621,0.6212,0.6213,0.6212,0.6211,0.6205,0.6205,0.6205,0.6205,0,0.6254,0.6249,0.6251,0.6247,0.6246,0.6249,0.6245,0.6246,0.6243,0.6244,0.6244,0.6238,0.6238,0.6232,0.623,0.6227,0.6232,0.6229,0.6234,0.6233,0.624,0.624,0.6262,0.6266,0.624,0.6241,0.6241,0,0.626,0.6262,0.6259,0.626,0.6258,0.6259,0.6259,0.6253,0.6254,0.6251,0.6253,0.6253,0.6253,0.6254,0.6249,0.6249,0.6246,0.6254,0.6245,0.6249,0.6247,0.6247,0.6248,0.6255,0.6256,0.6256,0.6256,0,0.6272,0.6271,0.6271,0.6272,0.6272,0.6272,0.6272,0.6273,0.6267,0.6268,0.6269,0.6269,0.6269,0.627,0.6269,0.6266,0.6261,0.6259,0.6261,0.6263,0.6266,0.6266,0.6239,0.6258,0.6258,0.6258,0.6258,0.6258,0.6282,0.6284,0.6283,0.6285,0.6285,0.6285,0.6287,0.6285,0.6286,0.6287,0.6283,0.6286,0.6284,0.6283,0.6282,0.6284,0.628,0.6282,0.6282,0.6283,0.6285,0.6266,0.6283,0.6283,0.6283,0.6283,0.6283,0,0.6294,0.6294,0.6296,0.6297,0.6299,0.6295,0.6295,0.6297,0.6299,0.6299,0.63,0.6303,0.6304,0.6301,0.6302,0.6304,0.6302,0.6305,0.6305,0.6305,0.6288,0.6287,0.6307,0.6307,0.6307,0.6307,0.6307,0.6307,0.6301,0.6305,0.6305,0.631,0.631,0.6313,0.6314,0.6315,0.6315,0.6319,0.632,0.6319,0.6318,0.632,0.6321,0.6321,0.6322,0.6326,0.6324,0.6308,0.6306,0.6303,0.6302,0.6326,0.6326,0.6341,0.6341,0.6341]}]]